Wind_Speed
7 7 6 5 4 4 4 4 3 2 3 5 7 9 12 13 14 14 14 14 12 8 5 5 5 3 4 6 5 9 12 17 14 9 8 10 7 8 7 10 9 5 6 6 8
7 7 6 5 4 3 3 3 3 2 1 1 1 2 2 4 8 11 12 11 12 9 6 2 3 3 3 3 3 8 12 12 10 8 7 7 7 5 7 5 9 13 9 5 5
6 6 6 5 4 3 3 3 3 2 1 1 2 2 3 3 2 2 8 9 8 9 9 4 3 5 4 4 7 8 12 10 8 10 8 8 7 6 5 4 9 4 2 11 6
6 6 5 5 4 3 3 3 3 3 2 2 2 0 2 7 4 4 2 6 7 8 9 8 7 5 5 6 7 8 9 8 9 10 9 8 5 2 5 6 5 4 4 13 9
6 6 5 4 4 3 3 2 2 2 2 2 2 2 2 3 4 3 0 3 5 7 7 7 6 5 6 7 8 9 9 8 8 8 4 2 3 6 5 7 6 5 2 10 9
7 6 6 5 4 3 2 2 2 2 1 1 2 4 5 2 5 4 2 1 3 7 8 7 5 6 12 8 8 10 10 8 3 2 3 3 5 4 6 5 5 4 5 5 10
8 7 6 5 4 3 2 1 1 1 1 1 3 5 7 6 9 3 1 1 3 4 2 6 9 6 5 8 6 10 8 6 2 1 2 2 6 4 6 3 4 4 2 6 6
8 7 7 6 4 3 2 1 1 1 0 1 3 5 4 6 4 1 1 3 1 5 9 7 11 9 12 10 11 7 8 12 8 1 3 1 8 5 4 4 4 3 4 2 10
9 7 6 6 5 3 3 2 1 1 1 2 4 5 5 4 3 1 3 2 2 3 7 7 9 9 7 10 12 9 13 12 7 2 3 4 8 6 4 3 5 6 5 2 5
9 7 5 5 5 4 2 2 1 1 2 4 2 2 9 5 3 1 3 9 4 4 4 2 3 6 7 10 14 10 2 2 4 5 1 4 2 3 3 3 4 4 6 5 8
9 8 5 4 4 4 2 1 1 4 5 7 4 2 3 9 3 4 5 6 6 6 5 7 6 12 6 2 6 6 5 7 5 6 5 8 2 2 1 2 4 4 4 5 7
9 9 6 4 4 3 2 1 1 7 6 9 12 13 10 7 3 6 8 8 7 7 5 8 9 5 3 4 6 7 7 11 5 6 8 8 11 11 7 4 4 4 6 5 3
10 9 7 4 4 2 2 1 1 4 6 9 10 13 13 9 6 10 11 8 7 6 9 12 3 1 3 5 6 9 10 6 6 6 12 18 13 16 12 7 6 5 4 2 2
11 9 7 6 4 3 1 1 2 2 5 11 10 10 12 8 8 12 12 7 6 7 10 10 3 3 4 7 6 8 5 6 10 13 18 11 16 20 19 12 9 7 5 3 2
11 10 8 7 6 4 3 2 2 2 5 13 10 12 10 12 7 13 11 10 9 8 6 2 5 4 4 6 3 10 9 12 14 16 18 18 16 11 20 17 13 9 6 1 2
11 9 9 8 7 6 3 2 4 3 6 11 10 9 15 14 8 9 13 12 8 9 10 11 4 6 6 6 8 11 13 14 17 18 19 21 17 20 22 14 13 11 5 1 4
11 9 8 7 8 6 5 6 3 11 5 10 10 10 14 13 12 11 12 13 11 9 13 12 14 9 9 8 9 8 13 16 15 16 6 6 7 12 11 12 12 10 3 2 6
12 10 10 8 7 6 8 3 10 10 10 4 5 11 14 14 13 12 13 13 15 16 15 12 10 14 7 4 7 5 8 8 11 12 12 8 7 7 12 14 16 9 4 7 7
12 10 9 7 7 9 11 12 14 9 8 5 9 12 14 15 15 16 14 17 14 21 14 13 6 9 6 5 3 5 9 14 11 17 19 17 3 6 12 9 8 5 7 5 9
11 9 9 9 6 9 10 18 15 11 8 4 9 10 14 18 14 16 14 14 15 9 5 11 12 9 10 6 9 12 10 13 15 12 9 10 13 11 8 5 8 6 8 11 14
8 2 8 7 7 10 14 12 9 13 12 11 13 15 14 18 14 18 18 15 17 7 9 13 16 14 12 8 13 13 11 8 12 10 10 8 4 7 4 4 6 9 13 16 16
7 5 12 12 10 9 14 12 16 14 9 10 12 15 14 13 18 13 17 5 10 16 10 7 14 16 21 18 11 13 14 18 19 17 15 16 16 3 1 3 10 10 11 15 16
11 15 9 10 12 11 12 16 13 11 12 11 13 13 14 13 13 15 14 7 4 7 11 10 11 15 19 18 19 13 10 13 13 14 16 15 19 11 2 7 7 14 17 22 28
8 2 6 13 15 14 12 9 14 13 14 9 13 12 14 15 16 14 17 6 7 10 16 14 15 12 18 23 12 13 12 11 13 16 19 23 23 19 20 22 16 17 18 21 28
6 4 9 7 6 13 14 15 12 14 10 10 14 14 12 14 15 17 17 13 9 12 13 12 17 18 20 20 20 21 22 22 24 25 27 28 27 24 24 17 16 13 12 15 19
9 9 17 22 11 9 9 11 16 14 13 12 14 13 13 18 16 16 16 17 17 13 9 10 19 15 19 19 20 26 25 25 26 26 29 27 26 20 13 10 10 13 16 23 19
22 22 17 15 7 14 16 14 14 14 16 13 13 9 14 11 16 14 14 14 10 14 12 9 13 14 20 18 22 25 23 23 22 21 23 22 15 13 11 11 12 15 16 19 21
Wind_Direction
357 349 346 336 329 325 324 324 323 316 288 272 267 264 259 254 250 249 249 248 255 254 263 274 279 304 327 302 287 296 286 303 34 32 348 357 358 6 0 13 18 60 33 314 16
3 354 350 340 333 327 323 320 317 325 325 297 318 346 316 264 247 240 241 248 244 243 239 268 30 344 300 310 302 306 307 10 2 344 336 335 338 338 344 3 43 49 117 308 317
6 358 351 346 342 335 326 312 303 292 278 295 322 20 31 45 358 279 220 231 236 230 224 197 211 273 282 277 278 292 304 331 327 325 326 322 322 337 359 35 20 28 226 307 310
11 4 357 351 346 345 336 322 306 280 257 277 287 105 81 111 61 346 222 213 209 206 205 186 234 252 278 295 290 283 291 314 310 314 323 319 314 32 53 33 39 36 259 288 291
12 9 5 360 352 355 345 337 315 279 260 268 255 190 150 169 291 332 235 170 183 187 188 190 232 256 269 293 291 289 295 291 310 317 308 68 59 110 53 48 23 34 138 242 204
6 6 9 7 2 355 354 341 322 304 257 238 200 182 154 61 295 290 272 154 146 165 166 198 218 266 278 289 276 275 288 291 293 290 40 92 89 124 39 46 34 32 92 231 200
353 0 6 3 8 357 353 344 323 310 283 143 162 178 174 241 278 273 259 198 168 140 180 242 231 251 303 300 289 279 284 251 198 257 229 198 154 60 30 38 25 40 109 153 224
343 352 358 0 1 359 347 334 355 332 290 174 159 183 212 257 269 262 44 36 155 179 215 237 252 251 260 268 289 268 244 207 165 33 238 233 122 63 63 43 32 58 36 133 165
332 344 350 358 355 359 355 344 338 308 232 175 174 144 294 271 239 191 138 162 233 237 239 242 222 247 269 274 261 222 249 154 156 150 233 281 124 77 62 68 60 50 90 75 3
321 332 343 354 356 359 9 27 68 48 184 130 146 161 285 283 190 210 174 172 220 233 223 302 267 251 250 240 276 330 276 163 236 145 262 244 232 89 89 65 93 71 85 108 159
312 317 331 344 356 5 357 155 105 339 195 150 296 124 168 184 229 205 208 179 211 218 242 260 236 233 243 245 330 311 300 296 278 251 292 278 183 232 205 105 105 103 88 104 89
304 303 311 325 346 359 9 233 183 227 260 242 216 211 190 224 227 212 198 175 203 229 242 222 238 248 251 299 303 282 274 266 229 246 282 271 242 235 195 180 144 144 141 103 46
297 296 295 300 314 329 10 352 237 248 241 232 237 220 230 218 211 215 194 189 227 247 229 252 231 325 322 262 283 256 252 344 294 296 274 262 259 236 181 165 158 153 143 157 159
291 290 282 281 284 328 302 289 255 260 241 207 214 199 205 189 219 222 204 188 230 242 237 246 201 279 272 275 270 333 19 290 289 281 279 312 262 181 177 179 177 165 119 107 50
287 283 277 265 266 263 271 257 207 208 278 164 166 209 203 169 173 191 206 213 228 252 239 231 251 271 263 276 277 290 313 291 281 276 275 271 252 210 172 182 185 179 164 191 328
286 279 273 262 250 243 238 207 170 247 253 171 202 198 190 197 218 191 203 209 224 252 253 258 249 249 251 281 277 288 300 289 269 258 253 249 242 136 183 190 174 177 179 266 333
281 277 266 258 253 222 202 162 248 239 146 195 207 203 198 207 208 213 214 219 225 222 235 242 247 237 226 270 259 287 299 309 306 220 253 91 202 104 143 139 147 158 168 275 314
275 271 263 250 240 218 188 187 241 246 232 193 217 197 209 211 217 219 225 230 236 246 275 260 276 197 217 219 306 281 312 296 303 310 354 129 234 165 166 182 203 220 220 311 276
273 270 259 241 227 212 186 222 227 246 276 224 231 239 229 232 225 223 237 245 247 235 242 276 341 142 181 225 274 223 262 304 301 289 275 274 208 249 163 164 182 208 232 277 300
272 275 279 226 216 204 221 236 248 275 263 241 252 232 244 228 220 239 244 239 236 219 220 252 291 255 242 221 266 258 276 292 270 257 286 310 337 112 141 183 191 219 261 289 278
265 264 228 264 226 217 228 241 263 246 245 257 255 252 262 250 254 227 238 259 222 236 247 251 257 267 182 252 273 212 254 228 290 289 307 295 53 98 129 218 254 279 288 276 286
241 173 239 260 235 239 240 239 251 239 267 260 245 250 259 247 249 249 245 282 195 216 247 260 264 255 257 282 236 244 268 283 277 280 266 301 282 41 125 296 304 292 264 274 273
238 215 234 238 233 240 243 242 250 242 246 250 249 244 240 250 256 241 245 240 167 197 241 250 250 259 260 255 251 233 259 272 257 262 265 273 276 289 356 318 309 294 288 288 286
239 276 263 244 236 248 256 253 248 248 233 248 237 238 244 238 234 237 239 245 231 233 244 239 247 270 277 292 300 282 262 255 257 264 274 273 281 280 300 309 298 286 294 293 298
197 213 246 191 236 242 242 246 248 232 242 236 247 238 233 240 238 239 237 243 227 252 252 236 248 258 263 268 277 277 275 271 268 270 272 278 281 291 299 289 290 287 293 300 300
217 228 227 218 257 242 236 243 240 243 242 246 240 238 238 244 244 248 245 240 243 224 214 249 249 259 268 270 274 277 275 273 269 270 270 273 276 285 281 288 292 303 296 290 299
234 227 223 221 255 243 247 248 253 243 233 239 243 254 239 247 233 237 247 246 249 243 232 243 247 262 268 276 283 277 266 268 272 269 269 269 278 288 292 327 322 318 308 304 294
Height
3163 3162 3161 3160 3160 3159 3158 3157 3157 3157 3157 3157 3157 3157 3158 3158 3159 3160 3161 3164 3164 3165 3166 3167 3167 3168 3169 3171 3171 3171 3169 3164 3164 3167 3168 3169 3170 3169 3170 3169 3168 3168 3168 3165 3166
3164 3162 3161 3160 3159 3159 3158 3158 3157 3157 3157 3157 3157 3157 3157 3157 3157 3158 3161 3161 3163 3164 3166 3167 3167 3169 3172 3174 3175 3173 3169 3168 3169 3170 3170 3170 3171 3171 3171 3171 3171 3169 3168 3168 3168
3164 3163 3161 3160 3159 3159 3158 3157 3157 3157 3157 3157 3157 3157 3157 3157 3157 3158 3159 3160 3162 3163 3165 3167 3170 3173 3173 3174 3175 3173 3171 3170 3171 3170 3171 3170 3171 3170 3171 3171 3171 3173 3168 3168 3168
3165 3163 3162 3160 3160 3159 3158 3157 3157 3157 3157 3157 3157 3157 3158 3158 3163 3158 3158 3160 3161 3162 3164 3165 3170 3173 3174 3174 3174 3173 3172 3171 3171 3170 3170 3170 3170 3171 3172 3173 3173 3173 3170 3168 3168
3165 3164 3162 3161 3160 3159 3158 3157 3157 3157 3157 3157 3157 3158 3158 3159 3159 3158 3159 3159 3160 3162 3163 3166 3170 3174 3174 3174 3173 3172 3172 3171 3171 3170 3169 3169 3170 3171 3172 3173 3173 3173 3173 3170 3170
3165 3164 3162 3161 3160 3159 3158 3157 3157 3157 3157 3157 3157 3157 3159 3159 3159 3159 3159 3159 3160 3161 3163 3167 3171 3173 3173 3172 3172 3171 3170 3170 3170 3170 3170 3170 3171 3172 3173 3173 3174 3173 3175 3172 3171
3165 3163 3162 3161 3159 3158 3158 3158 3157 3157 3157 3157 3157 3158 3159 3161 3158 3159 3159 3160 3160 3160 3166 3168 3170 3172 3173 3172 3171 3170 3169 3168 3170 3170 3170 3169 3171 3172 3172 3173 3173 3174 3173 3175 3173
3164 3163 3161 3160 3159 3158 3158 3157 3157 3157 3157 3157 3157 3158 3159 3158 3158 3159 3159 3160 3161 3162 3165 3169 3168 3169 3170 3170 3169 3168 3167 3165 3168 3170 3170 3170 3171 3172 3173 3172 3173 3173 3172 3172 3172
3164 3162 3161 3160 3158 3158 3157 3157 3156 3156 3157 3157 3158 3158 3161 3159 3159 3159 3160 3163 3162 3163 3164 3165 3165 3168 3169 3170 3166 3164 3160 3162 3166 3168 3170 3170 3170 3171 3172 3172 3172 3172 3172 3172 3169
3163 3161 3160 3159 3158 3157 3157 3156 3156 3157 3157 3158 3159 3161 3159 3159 3158 3159 3160 3162 3165 3166 3166 3165 3167 3168 3168 3167 3163 3161 3159 3161 3165 3168 3169 3169 3169 3169 3172 3171 3171 3172 3171 3170 3169
3161 3160 3159 3158 3157 3157 3157 3156 3159 3158 3157 3157 3161 3160 3159 3160 3159 3160 3160 3162 3166 3167 3167 3167 3169 3165 3165 3164 3163 3164 3164 3164 3165 3166 3168 3167 3167 3169 3171 3172 3170 3171 3170 3170 3168
3160 3158 3158 3158 3157 3156 3155 3155 3156 3157 3156 3154 3157 3159 3160 3158 3160 3160 3161 3164 3165 3167 3167 3169 3166 3164 3163 3164 3165 3165 3164 3163 3163 3165 3168 3166 3165 3167 3168 3170 3171 3170 3171 3171 3169
3157 3156 3156 3156 3156 3155 3155 3155 3155 3155 3155 3154 3154 3155 3157 3159 3161 3161 3161 3163 3166 3166 3166 3165 3165 3163 3165 3165 3165 3163 3162 3162 3164 3164 3164 3163 3163 3163 3165 3168 3169 3170 3169 3168 3168
3154 3154 3154 3154 3156 3154 3154 3154 3154 3154 3153 3154 3153 3156 3157 3157 3160 3161 3160 3165 3166 3165 3164 3164 3163 3164 3165 3164 3164 3161 3162 3164 3164 3164 3160 3159 3156 3154 3159 3165 3168 3169 3170 3168 3168
3152 3151 3151 3152 3152 3153 3154 3153 3154 3154 3151 3151 3153 3153 3154 3156 3158 3160 3161 3164 3163 3164 3165 3163 3162 3163 3164 3164 3163 3163 3163 3163 3162 3160 3158 3156 3154 3148 3157 3161 3164 3166 3167 3168 3166
3149 3149 3149 3150 3150 3152 3152 3153 3154 3158 3148 3150 3150 3150 3154 3155 3158 3159 3160 3161 3163 3162 3162 3161 3161 3162 3163 3162 3163 3163 3162 3159 3156 3154 3151 3146 3148 3153 3152 3158 3161 3162 3164 3166 3166
3145 3146 3146 3146 3147 3148 3150 3152 3157 3151 3147 3147 3148 3150 3152 3154 3156 3157 3158 3159 3160 3161 3158 3158 3158 3159 3161 3162 3161 3162 3159 3154 3147 3144 3144 3145 3147 3149 3152 3156 3159 3160 3163 3164 3165
3142 3142 3143 3144 3145 3146 3148 3152 3153 3144 3142 3143 3146 3148 3149 3150 3152 3154 3156 3157 3157 3157 3156 3152 3150 3154 3157 3160 3161 3161 3162 3160 3155 3146 3148 3148 3146 3147 3148 3151 3154 3157 3160 3161 3162
3138 3139 3140 3141 3142 3143 3146 3149 3146 3145 3144 3142 3145 3146 3146 3147 3149 3151 3152 3153 3153 3153 3156 3154 3152 3152 3156 3158 3161 3162 3160 3159 3156 3153 3148 3144 3144 3147 3147 3151 3152 3156 3157 3159 3158
3136 3136 3137 3138 3139 3141 3143 3142 3141 3142 3143 3143 3144 3143 3143 3143 3146 3149 3148 3149 3150 3151 3153 3154 3153 3153 3152 3156 3158 3158 3160 3158 3154 3151 3146 3140 3143 3146 3149 3151 3152 3153 3154 3154 3152
3133 3134 3135 3135 3136 3138 3139 3140 3141 3141 3140 3143 3143 3142 3141 3140 3140 3142 3145 3146 3146 3149 3151 3153 3153 3152 3150 3153 3153 3155 3155 3155 3153 3151 3149 3147 3146 3146 3149 3149 3150 3151 3151 3148 3146
3130 3134 3132 3133 3135 3135 3136 3137 3137 3137 3138 3138 3140 3139 3139 3140 3140 3141 3143 3141 3141 3146 3149 3151 3149 3148 3149 3149 3149 3151 3151 3153 3154 3151 3149 3148 3146 3144 3147 3148 3147 3147 3143 3140 3138
3126 3127 3129 3129 3131 3132 3133 3133 3134 3135 3136 3137 3137 3138 3138 3139 3140 3139 3142 3138 3140 3145 3146 3148 3148 3147 3146 3146 3145 3145 3149 3150 3149 3149 3149 3150 3147 3146 3144 3145 3145 3140 3139 3135 3133
3123 3127 3127 3126 3126 3128 3128 3129 3130 3130 3132 3133 3134 3135 3135 3136 3138 3139 3139 3138 3139 3141 3143 3146 3147 3147 3145 3139 3146 3145 3145 3145 3146 3145 3143 3142 3141 3142 3140 3139 3138 3136 3135 3131 3128
3119 3124 3123 3124 3125 3125 3126 3127 3127 3128 3129 3130 3131 3132 3133 3135 3135 3136 3138 3139 3136 3137 3141 3144 3143 3144 3143 3142 3141 3141 3141 3141 3140 3140 3140 3138 3138 3138 3136 3133 3133 3132 3130 3128 3125
3114 3115 3115 3115 3118 3120 3122 3124 3125 3125 3127 3126 3128 3129 3131 3132 3133 3133 3134 3135 3135 3133 3137 3140 3140 3140 3140 3140 3139 3136 3135 3135 3135 3135 3133 3133 3133 3135 3128 3126 3126 3125 3124 3123 3120
3101 3106 3109 3112 3116 3118 3120 3121 3122 3122 3123 3123 3125 3125 3128 3125 3123 3125 3128 3130 3132 3133 3134 3136 3137 3137 3135 3136 3134 3131 3129 3128 3128 3128 3128 3128 3130 3125 3124 3123 3123 3122 3120 3118 3114